Regional Weather Roundup
Issued by NWS

Home | Current Version | Previous Version | Text Only | Print | Product List | Glossary On
Versions: 1 2 3 4 5 6 7 8 9 10 11 12 13 14 15 16 17 18 19 20 21 22 23 24 25 26 27 28 29 30 31 32 33 34 35 36 37 38 39 40 41 42 43 44 45 46 47 48 49 50
810
ASUS43 KTOP 280159
RWRKS

WEATHER ROUNDUP FOR KANSAS
NATIONAL WEATHER SERVICE GOODLAND KS
900 PM CDT TUE SEP 27 2016

NOTE:  "FAIR" INDICATES FEW OR NO CLOUDS BELOW 12,000 FEET WITH NO
SIGNIFICANT WEATHER AND/OR OBSTRUCTIONS TO VISIBILITY.

KSZ001>006-013>018-027>032-041>047-280300-
NORTHWEST KANSAS

CITY           SKY/WX    TMP DP  RH WIND       PRES   REMARKS
GOODLAND       CLEAR     63  38  39 CALM      30.04R
HAYS           CLEAR     68  46  45 S3        29.95R
HILL CITY      CLEAR     59  54  83 W5        29.95S
RUSSELL        CLEAR     69  51  52 S8        29.92S
$$

KSZ061>065-074>080-084>089-280300-
SOUTHWEST KANSAS

CITY           SKY/WX    TMP DP  RH WIND       PRES   REMARKS
DODGE CITY     CLEAR     70  39  32 SW6       29.99S
ELKHART          N/A     74  39  28 S7          N/A
GARDEN CITY    CLEAR     65  38  36 SW6       30.00S
GREAT BEND     CLEAR     70  48  46 CALM      29.94S
LIBERAL          N/A    N/A N/A N/A MISG        N/A
$$

KSZ066>073-081>083-090>101-280300-
SOUTHEAST KANSAS

CITY           SKY/WX    TMP DP  RH WIND       PRES   REMARKS
CHANUTE        CLEAR     65  56  72 SW7       29.92R
COFFEYVILLE    CLEAR     67  53  61 S6        29.93R
HUTCHINSON     CLEAR     66  57  72 CALM      29.94R
MEDICINE LODGE   N/A     71  53  52 E7        29.95R
PARSONS        CLEAR     59  55  87 S3        29.94R
WICHITA INTL   CLEAR     65  57  75 S8        29.93R
WICHITA JABRA  CLEAR     67  57  70 S8        29.93S
WICHITA MCCONL CLEAR     66  57  72 SW9       29.94R
WINFIELD       CLEAR     64  56  75 S6        29.95S
$$

KSZ007>012-019>026-033>040-048>060-102>105-280300-
NORTHEAST KANSAS

CITY           SKY/WX    TMP DP  RH WIND       PRES   REMARKS
CONCORDIA      CLEAR     67  51  56 SW9       29.89F
EMPORIA        CLEAR     64  57  78 SW5       29.92R
LAWRENCE       CLEAR     61  57  87 CALM      29.88S
MANHATTAN      CLEAR     59  55  87 NE5       29.89S
OLATHE IND     CLEAR     64  57  78 SW3       29.90R
OLATHE EXE     CLEAR     67  55  65 CALM      29.89R
SALINA         CLEAR     66  54  65 SE3       29.92R
TOPEKA BILLARD CLEAR     65  58  78 CALM      29.88R
TOPEKA FORBES  CLEAR     64  55  72 SW5       29.89R
$$




USA.gov is the U.S. government's official web portal to all federal, state and local government web resources and services.